カタログに戻る

NEXSAT-1

運用中科学SSO
NORAD 58921·PAYLOAD·🇪🇬 Egypt

打ち上げ Feb 3, 2024 から South China Sea Launch Area

Loading…

次のパス (今後24時間)

TLE

最新Source: Space-Track

元期: Sep 14, 2026, 22:14 UTC

1 58921U 24024E   26257.92640872  .00006465  00000-0  19524-3 0  9992
2 58921  97.2975 330.9987 0009114 146.8121 213.3696 15.34558054145654

AllMySatでNEXSAT-1をリアルタイム追跡

Download on the App Store